This demonstration page uses our WeatherBlox Daily Observations layout. Learn more.

Left ArrowRight Arrow

34.16533, -84.80231

Hourly Observations for March 11, 2021

Temp ( °F °C ) Dew Point ( °F °C ) Humidity (%) Winds ( mph kmh ) Pressure ( in mb ) Visibility ( mi km ) Precip ( " mm )
12:53 am 00:53 Clear 49 9.4 39 3.9 69 69 Calm 30.36 1028 10 16 0.00 0.00
1:53 am 01:53 Clear 48 8.9 39 3.9 71 71 Calm 30.35 1028 10 16 0.00 0.00
2:53 am 02:53 Clear 45 7.2 39 3.9 80 80 SE 6 9 30.34 1028 10 16 0.00 0.00
3:53 am 03:53 Clear 47 8.3 40 4.4 77 77 Calm 30.35 1028 10 16 0.00 0.00
4:53 am 04:53 Clear 47 8.3 40 4.4 77 77 Calm 30.37 1028 10 16 0.00 0.00
5:53 am 05:53 Clear 51 10.6 41 5 69 69 Calm 30.36 1028 10 16 0.00 0.00
6:53 am 06:53 Clear 50 10 42 5.6 74 74 Calm 30.38 1029 10 16 0.00 0.00
7:53 am 07:53 Sunny 53 11.7 43 6.1 69 69 Calm 30.39 1029 10 16 0.00 0.00
8:53 am 08:53 Sunny 57 13.9 46 7.8 67 67 NNE 5 7 30.40 1030 10 16 0.00 0.00
9:53 am 09:53 Sunny 64 17.8 48 8.9 56 56 S 6 9 30.40 1030 10 16 0.00 0.00
10:53 am 10:53 Sunny 68 20 47 8.3 47 47 VRB 5 7 30.40 1030 10 16 0.00 0.00
11:53 am 11:53 Sunny 72 22.2 48 8.9 43 43 SSW 6 9 30.40 1030 10 16 0.00 0.00
12:53 pm 12:53 Sunny 72 22.2 49 9.4 44 44 S 7 11 30.38 1029 10 16 0.00 0.00
1:53 pm 13:53 Partly Cloudy 72 22.2 48 8.9 43 43 undefined N/A 30.35 1028 10 16 0.00 0.00
2:53 pm 14:53 Partly Cloudy 74 23.3 48 8.9 40 40 undefined N/A 30.32 1027 10 16 0.00 0.00
3:53 pm 15:53 Sunny 74 23.3 46 7.8 37 37 S 9 15 30.29 1026 10 16 0.00 0.00
4:53 pm 16:53 Sunny 73 22.8 46 7.8 38 38 S 6 9 30.29 1026 10 16 0.00 0.00
5:53 pm 17:53 Sunny 73 22.8 45 7.2 37 37 S 7 11 30.27 1025 10 16 0.00 0.00
6:53 pm 18:53 Clear 69 20.6 45 7.2 42 42 S 5 7 30.29 1026 10 16 0.00 0.00
7:53 pm 19:53 Clear 63 17.2 46 7.8 54 54 S 5 7 30.30 1026 10 16 0.00 0.00
8:53 pm 20:53 Clear 61 16.1 46 7.8 58 58 S 6 9 30.31 1027 10 16 0.00 0.00
9:53 pm 21:53 Clear 61 16.1 45 7.2 56 56 S 6 9 30.32 1027 10 16 0.00 0.00
10:53 pm 22:53 Clear 57 13.9 46 7.8 67 67 Calm 30.32 1027 10 16 0.00 0.00
11:53 pm 23:53 Clear 53 11.7 45 7.2 74 74 Calm 30.31 1027 10 16 0.00 0.00

Powered by AerisWeather